This demonstration page uses our WeatherBlox Daily Observations layout. Learn more.

Left ArrowRight Arrow

Hourly Observations for January 27, 2019

Temp ( °F °C ) Dew Point ( °F °C ) Humidity (%) Winds ( mph kmh ) Pressure ( in mb ) Visibility ( mi km ) Precip ( " mm )
12:53 am 00:53 Cloudy with Light Rain 35 1.7 31 -0.6 85 85 SW 13 20 29.95 1014 10 16 0.00 0.03
1:12 am 01:12 Cloudy with Light Rain 35 1.7 32 0 89 89 SW 12 19 29.96 1015 10 16 0.00 0.03
1:53 am 01:53 Cloudy 35 1.7 31 -0.6 85 85 WSW 13 20 29.95 1014 10 16 0.00 0.03
2:18 am 02:18 Cloudy 36 2.2 31 -0.6 82 82 W 18 30 29.97 1015 10 16 0.00 0.00
2:53 am 02:53 Cloudy 36 2.2 29 -1.7 76 76 WSW 18 30 29.96 1015 10 16 0.00 0.00
3:53 am 03:53 Cloudy 35 1.7 28 -2.2 76 76 W 12 19 29.97 1015 10 16 0.00 0.00
4:53 am 04:53 Cloudy 33 0.6 26 -3.3 75 75 WNW 20 31 30.01 1016 10 16 0.00 0.00
5:53 am 05:53 Cloudy 28 -2.2 21 -6.1 75 75 W 14 22 30.06 1018 10 16 0.00 0.00
6:53 am 06:53 Cloudy 27 -2.8 20 -6.7 75 75 NW 14 22 30.09 1019 10 16 0.00 0.00
7:53 am 07:53 Cloudy 26 -3.3 19 -7.2 75 75 WNW 10 17 30.11 1020 10 16 0.00 0.00
8:53 am 08:53 Cloudy 26 -3.3 19 -7.2 75 75 W 9 15 30.12 1020 10 16 0.00 0.00
9:53 am 09:53 Cloudy 25 -3.9 16 -8.9 69 69 W 15 24 30.15 1021 10 16 0.00 0.00
10:53 am 10:53 Cloudy 26 -3.3 17 -8.3 69 69 WNW 10 17 30.16 1021 10 16 0.00 0.00
11:31 am 11:31 Partly Cloudy 26 -3.3 17 -8.3 69 69 WNW 10 17 30.18 1022 10 16 0.00 0.00
11:53 am 11:53 Mostly Sunny 27 -2.8 16 -8.9 63 63 WNW 16 26 30.15 1021 10 16 0.00 0.00
12:53 pm 12:53 Sunny 27 -2.8 16 -8.9 63 63 WNW 14 22 30.14 1021 10 16 0.00 0.00
1:53 pm 13:53 Sunny 26 -3.3 12 -11.1 55 55 VRB 5 7 30.14 1021 10 16 0.00 0.00
2:53 pm 14:53 Sunny 27 -2.8 13 -10.6 55 55 NW 12 19 30.12 1020 10 16 0.00 0.00
3:53 pm 15:53 Sunny 27 -2.8 12 -11.1 53 53 WNW 5 7 30.13 1020 10 16 0.00 0.00
4:53 pm 16:53 Sunny 26 -3.3 12 -11.1 55 55 WNW 5 7 30.14 1021 10 16 0.00 0.00
5:53 pm 17:53 Clear 24 -4.4 12 -11.1 60 60 N 5 7 30.13 1020 10 16 0.00 0.00
6:53 pm 18:53 Clear 21 -6.1 11 -11.7 65 65 Calm 30.12 1020 10 16 0.00 0.00
7:53 pm 19:53 Clear 20 -6.7 11 -11.7 68 68 Calm 30.13 1020 10 16 0.00 0.00
8:53 pm 20:53 Clear 20 -6.7 10 -12.2 65 65 NE 5 7 30.12 1020 10 16 0.00 0.00
9:53 pm 21:53 Clear 20 -6.7 11 -11.7 68 68 Calm 30.11 1020 10 16 0.00 0.00
10:53 pm 22:53 Cloudy 20 -6.7 12 -11.1 71 71 Calm 30.09 1019 10 16 0.00 0.00
11:53 pm 23:53 Cloudy 22 -5.6 12 -11.1 66 66 NE 7 11 30.09 1019 10 16 0.00 0.00

Powered by AerisWeather